FW9206 Weather Reports


time (UTC)temp
C
wind
direction
speed
KPH
gust
KPH
rain 1hr
cm
rain 24hr
cm
rain mn
cm
humidity
%
barometer
mb
20260504223603 21 235 6.4 20.9 0.00 0.00 0.00 31 1007.7
20260504222704 21 249 12.9 29.0 0.00 0.00 0.00 31 1007.7
20260504221804 21 240 16.1 35.4 0.00 0.00 0.00 30 1007.6
20260504220903 21 253 14.5 29.0 0.00 0.00 0.00 30 1007.7
20260504220003 21 253 16.1 38.6 0.00 0.00 0.00 30 1007.6
20260504215403 21 244 14.5 32.2 0.00 0.00 0.00 31 1007.6
20260504214524 21 254 12.9 37.0 0.00 0.00 0.00 31 1007.7
20260504213603 21 255 14.5 37.0 0.00 0.00 0.00 31 1007.7
20260504212704 21 240 16.1 41.8 0.00 0.00 0.00 30 1007.6
20260504211824 21 263 17.7 38.6 0.00 0.00 0.00 30 1007.7
20260504210924 21 250 17.7 37.0 0.00 0.00 0.00 30 1007.7
20260504210003 21 253 17.7 35.4 0.00 0.00 0.00 30 1007.7
20260504205403 21 250 19.3 43.5 0.00 0.00 0.00 29 1007.7
20260504204526 21 240 19.3 56.3 0.00 0.00 0.00 29 1007.7
20260504203603 21 247 14.5 30.6 0.00 0.00 0.00 30 1007.7
20260504202703 21 246 17.7 38.6 0.00 0.00 0.00 29 1007.6
20260504201824 21 257 14.5 35.4 0.00 0.00 0.00 30 1007.7
20260504200903 21 241 16.1 35.4 0.00 0.00 0.00 29 1007.6
20260504200003 21 238 17.7 41.8 0.00 0.00 0.00 29 1007.7
20260504195404 21 231 14.5 27.4 0.00 0.00 0.00 30 1007.6
20260504194503 21 238 19.3 40.2 0.00 0.00 0.00 29 1007.9
20260504193603 21 239 27.4 49.9 0.00 0.00 0.00 29 1007.8
20260504192724 21 237 20.9 43.5 0.00 0.00 0.00 29 1007.9
20260504191804 21 241 20.9 46.7 0.00 0.00 0.00 29 1007.9
20260504190903 21 240 19.3 46.7 0.00 0.00 0.00 28 1008.0
20260504190024 20 242 24.1 48.3 0.00 0.00 0.00 28 1008.0
20260504185424 20 237 27.4 56.3 0.00 0.00 0.00 28 1008.0
20260504184524 21 241 16.1 41.8 0.00 0.00 0.00 28 1008.1
20260504183603 21 239 14.5 41.8 0.00 0.00 0.00 29 1008.1
20260504182703 20 243 20.9 46.7 0.00 0.00 0.00 30 1008.2
20260504181803 20 230 20.9 46.7 0.00 0.00 0.00 29 1008.4
20260504180903 20 240 22.5 41.8 0.00 0.00 0.00 30 1008.4
20260504180003 20 244 24.1 41.8 0.00 0.00 0.00 30 1008.5
20260504175404 19 234 24.1 46.7 0.00 0.00 0.00 31 1008.4
20260504174504 19 232 22.5 51.5 0.00 0.00 0.00 31 1008.4
20260504173603 20 249 14.5 40.2 0.00 0.00 0.00 32 1008.5
20260504172703 19 246 22.5 45.1 0.00 0.00 0.00 30 1008.7
20260504171803 19 239 24.1 53.1 0.00 0.00 0.00 31 1008.9
20260504170903 18 232 22.5 43.5 0.00 0.00 0.00 31 1008.8
20260504150903 17 226 17.7 35.4 0.00 0.00 0.00 38 1009.8
20260504140903 15 239 14.5 30.6 0.00 0.00 0.00 45 1010.5
20260504081803 7 215 9.7 16.1 0.00 0.05 0.00 57 1011.5
20260504080924 7 222 8.0 12.9 0.00 0.05 0.00 56 1011.5
20260504050024 5 227 9.7 14.5 0.00 0.05 0.00 59 1011.4
20260504045403 5 228 9.7 14.5 0.00 0.05 0.00 59 1011.5
20260504044504 5 229 8.0 14.5 0.00 0.05 0.00 59 1011.5
20260504043603 5 221 8.0 14.5 0.00 0.05 0.00 60 1011.4
20260504042704 5 211 6.4 11.3 0.00 0.05 0.00 58 1011.5
20260504041803 6 221 4.8 9.7 0.00 0.05 0.00 56 1011.4
20260504040903 6 232 8.0 12.9 0.00 0.05 0.00 54 1011.3
20260504040003 6 237 9.7 12.9 0.00 0.05 0.00 54 1011.3
20260504035403 6 238 9.7 12.9 0.00 0.05 0.05 54 1011.2
20260504034525 6 240 8.0 12.9 0.00 0.05 0.05 55 1011.2
20260504033603 6 241 8.0 12.9 0.00 0.05 0.05 55 1011.1
20260504032703 6 234 8.0 11.3 0.00 0.05 0.05 55 1011.1
20260504031804 6 229 8.0 9.7 0.00 0.05 0.05 55 1011.1
20260504030905 6 232 6.4 9.7 0.00 0.05 0.05 54 1011.0
20260504030024 6 234 6.4 11.3 0.00 0.05 0.05 54 1011.1
20260504025403 7 236 6.4 12.9 0.00 0.05 0.05 53 1011.1
20260504024503 7 245 8.0 12.9 0.00 0.05 0.05 52 1011.0
20260504023603 7 244 9.7 16.1 0.00 0.05 0.05 52 1011.0
20260504022703 7 240 8.0 14.5 0.00 0.05 0.05 53 1011.0
20260504021804 7 239 8.0 12.9 0.00 0.05 0.05 53 1011.0
20260504020903 7 239 6.4 11.3 0.00 0.05 0.05 52 1010.8
20260504015403 7 249 6.4 11.3 0.00 0.05 0.05 51 1010.8
20260504014503 7 249 8.0 14.5 0.00 0.05 0.05 50 1010.7
20260504013604 8 244 6.4 11.3 0.00 0.05 0.05 50 1010.6
20260504012704 8 242 6.4 12.9 0.00 0.05 0.05 49 1010.6
20260504011803 8 245 4.8 8.0 0.00 0.05 0.05 49 1010.6
20260504010903 8 253 4.8 8.0 0.00 0.05 0.05 49 1010.5
20260504010004 8 274 4.8 8.0 0.00 0.05 0.05 49 1010.4
20260504005403 8 290 3.2 6.4 0.00 0.05 0.05 49 1010.3
20260504004503 8 292 4.8 9.7 0.00 0.05 0.05 48 1010.2
20260504003603 8 287 4.8 9.7 0.00 0.05 0.05 48 1010.0
20260504002704 8 285 4.8 9.7 0.00 0.05 0.05 47 1010.0
20260504001803 8 291 4.8 11.3 0.00 0.05 0.05 47 1009.9
20260504000904 8 283 4.8 11.3 0.00 0.05 0.05 46 1009.9
20260504000024 9 291 4.8 14.5 0.00 0.05 0.05 45 1009.7
20260503235403 9 294 6.4 14.5 0.00 0.05 0.05 45 1009.6
20260503234503 9 285 6.4 16.1 0.00 0.05 0.05 44 1009.5
20260503233603 10 296 9.7 19.3 0.00 0.05 0.05 43 1009.4
20260503232703 10 300 9.7 24.1 0.00 0.05 0.05 43 1009.3
20260503231804 10 296 11.3 30.6 0.00 0.05 0.05 42 1009.2
20260503230904 10 291 11.3 27.4 0.00 0.05 0.05 41 1009.0
20260503230025 10 303 11.3 30.6 0.00 0.05 0.05 42 1008.9
20260503225403 10 307 12.9 30.6 0.00 0.05 0.05 42 1009.1
20260503224504 10 303 14.5 37.0 0.00 0.05 0.05 40 1008.9